DW7589 Weather Reports


time (UTC)temp
C
wind
direction
speed
KPH
gust
KPH
rain 1hr
cm
rain 24hr
cm
rain mn
cm
humidity
%
barometer
mb
20260902150242 31 140 1.6 6.4 0.00 0.00 0.00 58 1015.6
20260902145242 31 124 1.6 4.8 0.00 0.00 0.00 60 1015.6
20260902144741 31 115 1.6 4.8 0.00 0.00 0.00 61 1015.6
20260902142743 30 129 1.6 6.4 0.00 0.00 0.00 63 1015.7
20260902141741 30 101 1.6 4.8 0.00 0.00 0.00 65 1015.7
20260902141242 29 110 1.6 4.8 0.00 0.00 0.00 66 1015.7
20260902140743 28 82 1.6 4.8 0.00 0.00 0.00 67 1015.6
20260902140242 28 81 1.6 4.8 0.00 0.00 0.00 69 1015.5
20260902135742 27 73 1.6 4.8 0.00 0.00 0.00 71 1015.5
20260902135244 27 37 1.6 4.8 0.00 0.00 0.00 73 1015.5
20260902134242 26 0 0.0 3.2 0.00 0.00 0.00 76 1015.4
20260902133742 26 45 1.6 3.2 0.00 0.00 0.00 77 1015.4
20260902133243 25 52 1.6 3.2 0.00 0.00 0.00 78 1015.4
20260902132743 25 78 1.6 4.8 0.00 0.00 0.00 79 1015.4
20260902132242 25 0 0.0 4.8 0.00 0.00 0.00 80 1015.4
20260902131242 25 21 1.6 4.8 0.00 0.00 0.00 80 1015.3
20260902130742 25 30 1.6 4.8 0.00 0.00 0.00 81 1015.3
20260902130242 24 39 1.6 3.2 0.00 0.00 0.00 82 1015.3
20260902125742 24 0 0.0 3.2 0.00 0.00 0.00 82 1015.2
20260902125242 24 0 0.0 1.6 0.00 0.00 0.00 82 1015.2
20260902124742 24 0 0.0 3.2 0.00 0.00 0.00 82 1015.1
20260902124242 24 36 1.6 3.2 0.00 0.00 0.00 82 1015.0
20260902123742 24 28 1.6 3.2 0.00 0.00 0.00 82 1014.9
20260902122744 24 32 1.6 3.2 0.00 0.00 0.00 82 1014.8
20260902121742 24 30 1.6 3.2 0.00 0.00 0.00 82 1014.7
20260902121242 24 21 1.6 3.2 0.00 0.00 0.00 82 1014.8
20260902120742 24 14 1.6 3.2 0.00 0.00 0.00 82 1014.7
20260902120242 24 0 0.0 3.2 0.00 0.00 0.00 82 1014.8
20260902115742 24 0 0.0 3.2 0.00 0.00 0.00 82 1014.8
20260902115242 24 0 0.0 3.2 0.00 0.00 0.00 82 1014.7
20260902114743 24 0 0.0 1.6 0.00 0.00 0.00 82 1014.7
20260902114244 24 0 0.0 3.2 0.00 0.00 0.00 81 1014.6
20260902113742 24 9 1.6 3.2 0.00 0.00 0.00 81 1014.6
20260902113243 24 11 1.6 3.2 0.00 0.00 0.00 81 1014.6
20260902112742 24 0 0.0 3.2 0.00 0.00 0.00 81 1014.6
20260902112242 24 0 0.0 1.6 0.00 0.00 0.00 80 1014.6
20260902110742 24 35 1.6 3.2 0.00 0.00 0.00 80 1014.7
20260902105742 24 0 0.0 3.2 0.00 0.00 0.00 80 1014.7
20260902105242 25 0 0.0 1.6 0.00 0.00 0.00 80 1014.8
20260902104743 25 0 0.0 1.6 0.00 0.00 0.00 79 1014.8
20260902104242 25 0 0.0 1.6 0.00 0.00 0.00 79 1014.7
20260902103742 25 0 0.0 0.0 0.00 0.00 0.00 79 1014.7
20260902103242 25 0 0.0 1.6 0.00 0.00 0.00 79 1014.7
20260902102742 25 0 0.0 1.6 0.00 0.00 0.00 79 1014.7
20260902102242 25 0 0.0 3.2 0.00 0.00 0.00 79 1014.7
20260902101742 25 0 0.0 3.2 0.00 0.00 0.00 79 1014.6
20260902101242 25 0 0.0 3.2 0.00 0.00 0.00 78 1014.6
20260902100743 25 0 0.0 0.0 0.00 0.00 0.00 78 1014.5
20260902100242 25 0 0.0 0.0 0.00 0.00 0.00 77 1014.4
20260902095742 25 0 0.0 0.0 0.00 0.00 0.00 77 1014.5
20260902095243 25 0 0.0 0.0 0.00 0.00 0.00 76 1014.5
20260902094242 25 0 0.0 0.0 0.00 0.00 0.00 76 1014.5
20260902093742 26 0 0.0 0.0 0.00 0.00 0.00 75 1014.5
20260902093244 26 0 0.0 0.0 0.00 0.00 0.00 74 1014.5
20260902092243 26 0 0.0 1.6 0.00 0.00 0.00 73 1014.5
20260902091742 26 0 0.0 1.6 0.00 0.00 0.00 73 1014.6
20260902091242 26 0 0.0 1.6 0.00 0.00 0.00 72 1014.6
20260902090742 26 0 0.0 1.6 0.00 0.00 0.00 72 1014.6
20260902090243 26 0 0.0 1.6 0.00 0.00 0.00 72 1014.6
20260902085742 26 0 0.0 3.2 0.00 0.00 0.00 72 1014.5
20260902085243 26 0 0.0 3.2 0.00 0.00 0.00 71 1014.6
20260902084742 26 0 0.0 1.6 0.00 0.00 0.00 71 1014.5
20260902083742 27 0 0.0 1.6 0.00 0.00 0.00 71 1014.6
20260902083243 27 0 0.0 1.6 0.00 0.00 0.00 71 1014.6
20260902082743 27 0 0.0 1.6 0.00 0.00 0.00 71 1014.6
20260902082242 27 0 0.0 1.6 0.00 0.00 0.00 70 1014.6
20260902081742 27 0 0.0 3.2 0.00 0.00 0.00 70 1014.7
20260902081243 27 0 0.0 3.2 0.00 0.00 0.00 70 1014.7
20260902080742 27 0 0.0 1.6 0.00 0.00 0.00 70 1014.7
20260902075243 27 0 0.0 0.0 0.00 0.00 0.00 70 1014.8
20260902074742 27 0 0.0 1.6 0.00 0.00 0.00 69 1014.8
20260902074243 27 0 0.0 1.6 0.00 0.00 0.00 69 1014.9
20260902073742 27 0 0.0 1.6 0.00 0.00 0.00 69 1014.9
20260902072742 27 0 0.0 1.6 0.00 0.00 0.00 69 1015.0
20260902072242 27 0 0.0 1.6 0.00 0.00 0.00 69 1015.0
20260902071742 27 0 0.0 1.6 0.00 0.00 0.00 68 1015.0
20260902071243 27 0 0.0 1.6 0.00 0.00 0.00 68 1015.0
20260902070743 27 0 0.0 3.2 0.00 0.00 0.00 68 1015.0
20260902070244 27 164 1.6 3.2 0.00 0.00 0.00 68 1015.0
20260902065743 27 164 1.6 3.2 0.00 0.00 0.00 68 1015.1
20260902064743 27 0 0.0 3.2 0.00 0.00 0.00 67 1015.0
20260902064242 27 0 0.0 3.2 0.00 0.00 0.00 67 1015.1
20260902063742 27 0 0.0 1.6 0.00 0.00 0.00 67 1015.1
20260902063242 27 0 0.0 1.6 0.00 0.00 0.00 67 1015.1
20260902062744 27 0 0.0 1.6 0.00 0.00 0.00 67 1015.1
20260902062243 27 0 0.0 1.6 0.00 0.00 0.00 67 1015.1
20260902061742 27 0 0.0 1.6 0.00 0.00 0.00 67 1015.1
20260902061243 28 0 0.0 1.6 0.00 0.00 0.00 66 1015.1
20260902060743 28 0 0.0 1.6 0.00 0.00 0.00 66 1015.1
20260902060243 28 164 1.6 3.2 0.00 0.00 0.00 65 1015.1
20260902054742 28 157 1.6 3.2 0.00 0.00 0.00 64 1014.9
20260902053742 28 170 1.6 6.4 0.00 0.00 0.00 64 1014.8
20260902053242 28 167 1.6 4.8 0.00 0.00 0.00 64 1014.8
20260902052242 28 156 1.6 4.8 0.00 0.00 0.00 64 1014.7
20260902051743 28 162 1.6 3.2 0.00 0.00 0.00 64 1014.7
20260902050742 28 153 1.6 6.4 0.00 0.00 0.00 65 1014.9
20260902050243 28 154 1.6 6.4 0.00 0.00 0.00 65 1014.8
20260902045743 28 153 3.2 8.0 0.00 0.00 0.00 64 1014.8
20260902045242 29 153 4.8 8.0 0.00 0.00 0.00 64 1014.7
20260902044742 29 154 3.2 8.0 0.00 0.00 0.00 64 1014.7
20260902042743 29 145 3.2 6.4 0.00 0.00 0.00 63 1014.7
20260902041743 30 150 3.2 8.0 0.00 0.00 0.00 62 1014.7
20260902040742 30 150 4.8 11.3 0.00 0.00 0.00 61 1014.5
20260902040243 30 152 4.8 11.3 0.00 0.00 0.00 60 1014.5
20260902035743 30 153 4.8 9.7 0.00 0.00 0.00 60 1014.5
20260902035243 30 150 4.8 11.3 0.00 0.00 0.00 60 1014.6
20260902034743 30 151 6.4 11.3 0.00 0.00 0.00 59 1014.5
20260902034243 30 153 6.4 12.9 0.00 0.00 0.00 58 1014.4
20260902033743 31 150 6.4 12.9 0.00 0.00 0.00 57 1014.3
20260902032742 31 139 4.8 8.0 0.00 0.00 0.00 56 1014.2
20260902032242 31 144 4.8 8.0 0.00 0.00 0.00 55 1014.2
20260902031742 31 149 4.8 9.7 0.00 0.00 0.00 55 1014.1
20260902031242 31 144 4.8 9.7 0.00 0.00 0.00 54 1013.9
20260902030243 31 131 3.2 4.8 0.00 0.00 0.00 53 1013.7
20260902025742 31 113 1.6 4.8 0.00 0.00 0.00 53 1013.6
20260902025242 31 102 1.6 3.2 0.00 0.00 0.00 53 1013.4
20260902024743 30 100 1.6 1.6 0.00 0.00 0.00 54 1013.5
20260902024243 30 0 0.0 1.6 0.00 0.00 0.00 54 1013.4
20260902023742 30 0 0.0 1.6 0.00 0.00 0.00 54 1013.3
20260902022743 31 0 0.0 0.0 0.00 0.00 0.00 53 1013.1
20260902022244 31 0 0.0 0.0 0.00 0.00 0.00 53 1013.0
20260902021742 31 0 0.0 0.0 0.00 0.00 0.00 52 1012.9
20260902021243 31 0 0.0 0.0 0.00 0.00 0.00 52 1012.9
20260902020243 31 0 0.0 0.0 0.00 0.00 0.00 51 1012.7
20260902015742 32 0 0.0 1.6 0.00 0.00 0.00 51 1012.7
20260902015243 32 0 0.0 1.6 0.00 0.00 0.00 50 1012.6
20260902014743 32 0 0.0 1.6 0.00 0.00 0.00 49 1012.6
20260902014243 32 0 0.0 1.6 0.00 0.00 0.00 49 1012.5
20260902013744 32 0 0.0 3.2 0.00 0.00 0.00 49 1012.4
20260902013243 32 0 0.0 3.2 0.00 0.00 0.00 48 1012.4
20260902012743 33 0 0.0 0.0 0.00 0.00 0.00 48 1012.3
20260902012243 33 0 0.0 0.0 0.00 0.00 0.00 47 1012.4
20260902011743 33 0 0.0 1.6 0.00 0.00 0.00 47 1012.3
20260902011242 33 0 0.0 3.2 0.00 0.00 0.00 46 1012.3
20260902010743 33 0 0.0 3.2 0.00 0.00 0.00 46 1012.3
20260902010242 33 0 0.0 3.2 0.00 0.00 0.00 45 1012.2
20260902005743 34 130 1.6 3.2 0.00 0.00 0.00 44 1012.2
20260902005243 34 137 1.6 3.2 0.00 0.00 0.00 44 1012.2
20260902004744 34 139 1.6 3.2 0.00 0.00 0.00 43 1012.2
20260902003743 35 132 1.6 3.2 0.00 0.00 0.00 43 1012.1
20260902003243 35 129 1.6 4.8 0.00 0.00 0.00 42 1012.1
20260902002743 35 128 1.6 4.8 0.00 0.00 0.00 42 1012.2
20260902002242 35 120 1.6 6.4 0.00 0.00 0.00 42 1012.1
20260902001743 35 123 1.6 6.4 0.00 0.00 0.00 42 1012.2
20260902001243 35 131 1.6 6.4 0.00 0.00 0.00 42 1012.2
20260902000744 35 136 3.2 9.7 0.00 0.00 0.00 41 1012.3
20260901235743 36 138 3.2 9.7 0.00 0.00 0.00 40 1012.3
20260901235243 36 142 3.2 9.7 0.00 0.00 0.00 40 1012.3
20260901234743 36 140 4.8 8.0 0.00 0.00 0.00 40 1012.4
20260901234243 36 140 4.8 11.3 0.00 0.00 0.00 40 1012.4
20260901233743 36 141 4.8 11.3 0.00 0.00 0.00 40 1012.4
20260901233243 36 139 3.2 9.7 0.00 0.00 0.00 39 1012.4
20260901232743 36 129 3.2 8.0 0.00 0.00 0.00 39 1012.5
20260901231243 36 132 4.8 9.7 0.00 0.00 0.00 38 1012.5
20260901230743 36 133 4.8 8.0 0.00 0.00 0.00 38 1012.5
20260901230243 36 136 3.2 6.4 0.00 0.00 0.00 39 1012.5
20260901225743 36 141 3.2 8.0 0.00 0.00 0.00 38 1012.4
20260901223743 37 132 4.8 8.0 0.00 0.00 0.00 37 1012.6
20260901223243 37 122 3.2 9.7 0.00 0.00 0.00 36 1012.6
20260901221744 36 106 1.6 8.0 0.00 0.00 0.00 39 1012.5
20260901220744 36 120 3.2 8.0 0.00 0.00 0.00 39 1012.6
20260901215744 36 142 4.8 9.7 0.00 0.00 0.00 40 1012.7
20260901215243 36 143 4.8 9.7 0.00 0.00 0.00 39 1012.8
20260901214743 36 138 4.8 8.0 0.00 0.00 0.00 39 1012.7
20260901213743 36 126 4.8 11.3 0.00 0.00 0.00 39 1012.8
20260901213244 37 135 6.4 12.9 0.00 0.00 0.00 39 1012.8
20260901212744 37 142 6.4 14.5 0.00 0.00 0.00 39 1012.7
20260901212244 37 142 4.8 14.5 0.00 0.00 0.00 38 1012.8
20260901211743 38 154 3.2 11.3 0.00 0.00 0.00 37 1012.9
20260901211243 38 158 4.8 11.3 0.00 0.00 0.00 36 1013.1
20260901210742 38 148 4.8 14.5 0.00 0.00 0.00 37 1013.1
20260901210242 38 146 4.8 14.5 0.00 0.00 0.00 37 1013.2
20260901205243 37 155 4.8 12.9 0.00 0.00 0.00 38 1013.2
20260901204743 38 170 3.2 12.9 0.00 0.00 0.00 37 1013.3
20260901204243 37 194 1.6 6.4 0.00 0.00 0.00 39 1013.3
20260901203745 37 189 3.2 12.9 0.00 0.00 0.00 38 1013.4
20260901203243 37 170 4.8 12.9 0.00 0.00 0.00 38 1013.5
20260901202245 37 178 3.2 8.0 0.00 0.00 0.00 39 1013.5
20260901201744 37 166 4.8 12.9 0.00 0.00 0.00 39 1013.6
20260901201242 37 164 4.8 12.9 0.00 0.00 0.00 40 1013.7
20260901200743 37 168 4.8 8.0 0.00 0.00 0.00 40 1013.7
20260901195743 37 160 3.2 12.9 0.00 0.00 0.00 39 1013.9
20260901195244 37 147 3.2 9.7 0.00 0.00 0.00 39 1013.9
20260901194743 37 139 4.8 8.0 0.00 0.00 0.00 40 1014.0
20260901194243 36 141 4.8 12.9 0.00 0.00 0.00 40 1014.1
20260901193744 36 157 4.8 12.9 0.00 0.00 0.00 41 1014.2
20260901193245 36 170 3.2 11.3 0.00 0.00 0.00 41 1014.1
20260901192743 36 162 4.8 11.3 0.00 0.00 0.00 40 1014.3
20260901191744 36 164 3.2 11.3 0.00 0.00 0.00 41 1014.3
20260901191243 36 164 4.8 11.3 0.00 0.00 0.00 41 1014.5
20260901190243 36 155 4.8 12.9 0.00 0.00 0.00 41 1014.6
20260901185744 36 161 3.2 11.3 0.00 0.00 0.00 42 1014.7
20260901185243 36 154 3.2 11.3 0.00 0.00 0.00 42 1014.8
20260901184743 36 153 4.8 12.9 0.00 0.00 0.00 42 1014.8
20260901182244 35 158 4.8 12.9 0.00 0.00 0.00 44 1015.4
20260901181743 35 168 4.8 12.9 0.00 0.00 0.00 44 1015.5
20260901180744 35 152 4.8 12.9 0.00 0.00 0.00 44 1015.6
20260901180244 35 166 4.8 11.3 0.00 0.00 0.00 45 1015.8
20260901175744 35 169 4.8 9.7 0.00 0.00 0.00 46 1015.9
20260901175243 35 183 4.8 9.7 0.00 0.00 0.00 45 1016.0
20260901174743 35 179 4.8 8.0 0.00 0.00 0.00 46 1016.0
20260901174243 35 149 3.2 12.9 0.00 0.00 0.00 45 1016.1
20260901173743 35 165 3.2 12.9 0.00 0.00 0.00 46 1016.2
20260901173243 35 152 3.2 8.0 0.00 0.00 0.00 45 1016.2
20260901172743 35 128 4.8 11.3 0.00 0.00 0.00 45 1016.4
20260901172244 35 130 4.8 11.3 0.00 0.00 0.00 45 1016.4
20260901171743 35 126 3.2 9.7 0.00 0.00 0.00 46 1016.4
20260901171244 35 124 4.8 9.7 0.00 0.00 0.00 46 1016.4
20260901170743 35 126 4.8 11.3 0.00 0.00 0.00 45 1016.4
20260901170243 35 135 3.2 11.3 0.00 0.00 0.00 47 1016.5
20260901165743 35 147 3.2 8.0 0.00 0.00 0.00 48 1016.5
20260901165244 35 137 3.2 8.0 0.00 0.00 0.00 48 1016.5
20260901164744 34 137 4.8 9.7 0.00 0.00 0.00 48 1016.5
20260901164244 34 141 4.8 9.7 0.00 0.00 0.00 50 1016.6
20260901163744 34 127 4.8 9.7 0.00 0.00 0.00 49 1016.7
20260901163244 34 121 3.2 9.7 0.00 0.00 0.00 50 1016.8
20260901162745 34 136 3.2 9.7 0.00 0.00 0.00 50 1016.8
20260901162243 33 160 3.2 9.7 0.00 0.00 0.00 51 1016.9
20260901161745 33 205 3.2 9.7 0.00 0.00 0.00 50 1016.9
20260901161244 33 230 3.2 8.0 0.00 0.00 0.00 51 1016.9
20260901160743 33 183 3.2 8.0 0.00 0.00 0.00 51 1016.9
20260901160243 33 147 3.2 8.0 0.00 0.00 0.00 52 1016.9
20260901155744 33 141 3.2 9.7 0.00 0.00 0.00 52 1016.9
20260901154743 33 158 3.2 8.0 0.00 0.00 0.00 52 1017.0
20260901154245 33 152 3.2 11.3 0.00 0.00 0.00 53 1017.0
20260901153744 33 150 3.2 11.3 0.00 0.00 0.00 53 1017.0
20260901152744 33 151 1.6 6.4 0.00 0.00 0.00 53 1017.0
20260901152243 32 167 1.6 6.4 0.00 0.00 0.00 54 1017.0
20260901151243 32 182 3.2 9.7 0.00 0.00 0.00 56 1017.1
20260901150743 32 164 3.2 6.4 0.00 0.00 0.00 56 1017.1